Date String (YYYY-MM-DD hh:mm:ss) UTC,Instrument flags,Ambient pressure (hPa),Sample flow (lpm),Bypass flow (lpm),Sample temperature (°C),Ambient temperature (°C),ASC tube jacket temperature (°C),LED temperature (°C),Box temperature (°C),Sample RH (%),Span deviation,Mass concentration (μg/m³),Mass concentration (μg/m³),Mass concentration (μg/m³)
DateTimeUTC,F1_M11,P_M11,Q1_M11,Q2_M11,T1_M11,T2_M11,T3_M11,T4_M11,T5_M11,U1_M11,ZSPAN_M11,X2_M11,X0_M11,X1_M11
2022-03-04 09:00:00,,0821.4,5.00,0.00,28.0,27.1,00.0,37.0,29.8,12.9,0000.4,0015.44,0032.64,0012.83
2022-03-04 09:01:00,,0821.4,4.99,0.00,28.0,27.0,00.0,37.0,29.8,12.9,0000.2,0015.34,0035.14,0012.76
2022-03-04 09:02:00,,0821.4,5.02,0.00,28.0,27.0,00.0,37.0,29.7,13.0,0000.4,0015.25,0036.40,0012.65
2022-03-04 09:03:00,,0821.4,5.01,0.00,27.9,27.0,00.0,37.0,29.7,13.0,0000.6,0015.09,0035.88,0012.53
2022-03-04 09:04:00,,0821.4,4.99,0.00,27.9,27.0,00.0,37.0,29.7,13.0,0000.5,0014.89,0034.38,0012.42
2022-03-04 09:05:00,,0821.3,4.99,0.00,27.9,27.0,00.0,37.0,29.7,13.0,0000.4,0014.78,0033.65,0012.36
2022-03-04 09:06:00,,0821.2,5.00,0.00,27.9,27.0,00.0,36.9,29.7,13.0,0000.2,0014.69,0033.02,0012.30
2022-03-04 09:07:00,,0821.2,5.01,0.00,27.9,27.0,00.0,36.9,29.7,13.0,0000.2,0014.53,0032.90,0012.23
2022-03-04 09:08:00,,0821.3,5.01,0.00,27.9,27.0,00.0,36.9,29.7,13.0,0000.3,0014.44,0033.08,0012.17
2022-03-04 09:09:00,,0821.3,5.00,0.00,27.9,27.0,00.0,36.9,29.7,13.0,0000.2,0014.36,0032.50,0012.13
2022-03-04 09:10:00,,0821.2,4.99,0.00,27.9,27.0,00.0,36.9,29.7,13.0,0000.1,0014.30,0031.58,0012.10
2022-03-04 09:11:00,,0821.2,5.00,0.00,27.9,27.0,00.0,36.9,29.7,13.0,0000.1,0014.29,0030.95,0012.09
2022-03-04 09:12:00,,0821.3,5.00,0.00,27.9,27.0,00.0,36.9,29.7,13.0,-000.0,0014.30,0028.89,0012.09
2022-03-04 09:13:00,,0821.3,4.99,0.00,27.9,27.0,00.0,36.9,29.7,13.0,-000.2,0014.32,0028.21,0012.10
2022-03-04 09:14:00,,0821.2,5.00,0.00,27.9,27.0,00.0,36.9,29.7,13.0,-000.3,0014.37,0029.28,0012.09
2022-03-04 09:15:00,,0821.2,5.00,0.00,27.9,27.0,00.0,36.9,29.7,13.0,-000.2,0014.38,0030.31,0012.07
2022-03-04 09:16:00,,0821.2,5.01,0.00,27.9,27.0,00.0,36.9,29.7,13.0,-000.2,0014.42,0030.04,0012.07
2022-03-04 09:17:00,,0821.2,5.00,0.00,27.9,27.0,00.0,36.9,29.7,12.9,-000.0,0014.49,0031.34,0012.10
2022-03-04 09:18:00,,0821.2,4.99,0.00,27.9,26.9,00.0,36.9,29.7,12.9,0000.2,0014.60,0031.97,0012.16
2022-03-04 09:19:00,,0821.1,5.00,0.00,27.9,26.9,00.0,36.9,29.6,12.9,0000.1,0014.66,0031.46,0012.20
2022-03-04 09:20:00,,0821.1,5.01,0.00,27.8,26.9,00.0,36.8,29.6,12.8,0000.2,0014.66,0031.55,0012.20
2022-03-04 09:21:00,,0821.1,5.00,0.00,27.8,27.0,00.0,36.8,29.6,12.9,-000.1,0014.67,0031.73,0012.19
2022-03-04 09:22:00,,0821.2,4.99,0.00,27.8,27.0,00.0,36.8,29.6,12.9,-000.1,0014.67,0031.97,0012.20
2022-03-04 09:23:00,,0821.1,5.00,0.00,27.8,27.0,00.0,36.8,29.5,12.9,-000.0,0014.64,0032.37,0012.21
2022-03-04 09:24:00,,0821.1,5.01,0.00,27.8,26.9,00.0,36.8,29.5,12.9,0000.1,0014.64,0032.55,0012.23
2022-03-04 09:25:00,,0821.1,5.00,0.00,27.8,26.9,00.0,36.8,29.5,12.9,0000.1,0014.68,0031.31,0012.29
2022-03-04 09:26:00,,0821.1,4.99,0.00,27.7,26.9,00.0,36.8,29.5,12.9,0000.0,0014.74,0031.32,0012.34
2022-03-04 09:27:00,,0821.1,5.00,0.00,27.7,26.9,00.0,36.8,29.5,12.9,-000.1,0014.72,0031.97,0012.34
2022-03-04 09:28:00,,0821.1,5.01,0.00,27.7,26.9,00.0,36.8,29.5,12.9,-000.2,0014.66,0030.98,0012.31
2022-03-04 09:29:00,,0821.1,5.00,0.00,27.7,26.8,00.0,36.8,29.5,12.8,-000.4,0014.59,0030.91,0012.24
2022-03-04 09:30:00,,0821.1,5.00,0.00,27.7,26.8,00.0,36.8,29.5,12.8,-000.4,0014.55,0030.95,0012.22
2022-03-04 09:31:00,,0821.1,4.98,0.00,27.7,26.8,00.0,36.8,29.5,12.8,-000.5,0014.52,0030.18,0012.19
2022-03-04 09:32:00,,0821.1,5.00,0.00,27.7,26.8,00.0,36.8,29.5,12.8,-000.3,0014.48,0029.77,0012.15
2022-03-04 09:33:00,,0821.0,5.00,0.00,27.7,26.8,00.0,36.7,29.5,12.8,-000.3,0014.38,0029.27,0012.07
2022-03-04 09:34:00,,0821.0,5.00,0.00,27.7,26.8,00.0,36.7,29.5,12.9,-000.6,0014.32,0028.41,0012.01
2022-03-04 09:35:00,,0821.0,5.01,0.00,27.7,26.8,00.0,36.7,29.4,12.9,-000.7,0014.29,0027.53,0011.95
2022-03-04 09:36:00,,0821.0,5.02,0.00,27.6,26.8,00.0,36.7,29.3,12.9,-000.8,0014.10,0026.85,0011.84
2022-03-04 09:37:00,,0821.0,5.00,0.00,27.6,26.7,00.0,36.7,29.3,12.9,-000.8,0013.98,0026.30,0011.74
2022-03-04 09:38:00,,0821.0,4.99,0.00,27.6,26.7,00.0,36.7,29.3,12.9,-000.8,0013.87,0025.30,0011.68
2022-03-04 09:39:00,,0821.0,4.99,0.00,27.6,26.7,00.0,36.7,29.3,12.9,-000.6,0013.79,0024.97,0011.58
2022-03-04 09:40:00,,0820.9,5.02,0.00,27.5,26.6,00.0,36.7,29.2,12.9,-000.6,0013.71,0024.58,0011.51
2022-03-04 09:41:00,,0820.8,5.00,0.00,27.5,26.6,00.0,36.6,29.2,13.0,-000.6,0013.72,0025.29,0011.51
2022-03-04 09:42:00,,0820.9,5.00,0.00,27.5,26.6,00.0,36.6,29.2,13.1,-000.4,0013.77,0026.13,0011.52
2022-03-04 09:43:00,,0820.9,5.00,0.00,27.5,26.6,00.0,36.6,29.2,13.1,-000.4,0013.78,0026.52,0011.53
2022-03-04 09:44:00,,0820.8,4.99,0.00,27.5,26.6,00.0,36.6,29.3,13.1,-000.4,0013.86,0026.95,0011.60
2022-03-04 09:45:00,,0820.8,5.01,0.00,27.5,26.6,00.0,36.6,29.3,13.1,-000.0,0013.94,0027.26,0011.65
2022-03-04 09:46:00,,0820.7,5.01,0.00,27.5,26.6,00.0,36.6,29.2,13.2,0000.1,0013.96,0028.01,0011.72
2022-03-04 09:47:00,,0820.7,5.00,0.00,27.5,26.6,00.0,36.5,29.2,13.2,0000.1,0014.04,0030.54,0011.79
2022-03-04 09:48:00,,0820.7,4.99,0.00,27.5,26.6,00.0,36.5,29.2,13.2,0000.1,0014.19,0030.99,0011.87
2022-03-04 09:49:00,,0820.7,5.00,0.00,27.5,26.6,00.0,36.5,29.2,13.2,0000.3,0014.32,0031.71,0011.95
2022-03-04 09:50:00,,0820.8,5.00,0.00,27.5,26.6,00.0,36.5,29.2,13.2,0000.3,0014.45,0033.11,0012.02
2022-03-04 09:51:00,,0820.7,4.99,0.00,27.4,26.6,00.0,36.5,29.2,13.2,0000.2,0014.56,0034.00,0012.12
2022-03-04 09:52:00,,0820.6,5.00,0.00,27.4,26.6,00.0,36.5,29.2,13.2,0000.0,0014.59,0034.02,0012.21
2022-03-04 09:53:00,,0820.6,5.01,0.00,27.4,26.6,00.0,36.5,29.2,13.1,-000.0,0014.57,0033.88,0012.21
2022-03-04 09:54:00,,0820.6,5.00,0.00,27.4,26.6,00.0,36.5,29.2,13.1,-000.1,0014.51,0034.43,0012.19
2022-03-04 09:55:00,,0820.6,5.00,0.00,27.4,26.6,00.0,36.5,29.2,13.1,0000.2,0014.49,0033.77,0012.22
2022-03-04 09:56:00,,0820.6,5.00,0.00,27.4,26.6,00.0,36.4,29.2,13.2,-000.0,0014.51,0034.13,0012.26
2022-03-04 09:57:00,,0820.5,5.00,0.00,27.4,26.6,00.0,36.4,29.2,13.2,-000.0,0014.61,0034.05,0012.29
2022-03-04 09:58:00,,0820.5,5.00,0.00,27.4,26.5,00.0,36.4,29.1,13.3,-000.0,0014.62,0032.11,0012.32
2022-03-04 09:59:00,,0820.6,5.00,0.00,27.4,26.5,00.0,36.4,29.1,13.3,-000.0,0014.64,0031.16,0012.37
